Regional Weather Roundup
Issued by NWS

Home | Current Version | Previous Version | Text Only | Print | Product List | Glossary On
Versions: 1 2 3 4 5 6 7 8 9 10 11 12 13 14 15 16 17 18 19 20 21 22 23 24 25 26 27 28 29 30 31 32 33 34 35 36 37 38 39 40 41 42 43 44 45 46 47 48 49 50
000
ASUS43 KDTX 232101
RWRMI
MICHIGAN HOURLY REGIONAL WEATHER ROUNDUP
NATIONAL WEATHER SERVICE DETROIT/PONTIAC MI
500 PM EDT TUE SEP 23 2014

NOTE: "FAIR" INDICATES FEW OR NO CLOUDS BELOW 12,000 FEET WITH NO
SIGNIFICANT WEATHER AND/OR OBSTRUCTION TO VISIBILITY.

MIZ047>049-052>055-059>063-066>070-074>076-081>083-232200-
SOUTHEAST LOWER MICHIGAN

CITY           SKY/WX    TMP DP  RH WIND       PRES   REMARKS
ADRIAN         SUNNY     71  47  42 VRB3      30.32F
ALMA           SUNNY     73  51  46 SW6       30.30S
ANN ARBOR      SUNNY     71  48  43 W5        30.31F
BAD AXE        SUNNY     71  52  51 W6        30.30F
CARO           SUNNY     72  53  52 SW5       30.29F
DETROIT CITY   SUNNY     72  49  44 VRB3      30.31F
DETROIT        SUNNY     71  50  47 CALM      30.32F
FLINT          SUNNY     74  52  46 VRB6      30.30F
GROSSE ILE     SUNNY     66  54  63 SE6       30.32S
HILLSDALE      SUNNY     71  48  43 W3        30.31F
HOWELL         SUNNY     70  49  46 W3        30.31S

CITY           SKY/WX    TMP DP  RH WIND       PRES   REMARKS
JACKSON        SUNNY     72  50  45 VRB3      30.31F
LAMBERTVILLE   SUNNY     72  45  37 CALM      30.31F
LANSING        SUNNY     73  49  42 W5        30.31F
LAPEER         FAIR      70  49  47 W5        30.31F
MASON          SUNNY     71  51  49 W5        30.31S
MONROE         SUNNY     70  52  52 S6        30.31S
MT. CLEMENS    SUNNY     67  51  56 SE10      30.30S
PONTIAC        MOSUNNY   70  50  49 W6        30.31F
PORT HOPE        N/A     72  52  49 VRB5      30.28F
PORT HURON     SUNNY     68  54  60 S6        30.31F
TRI CITIES     SUNNY     74  53  48 VRB5      30.30S
TROY           SUNNY     72  47  40 W5        30.32F
SAGINAW HB     SUNNY     73  50  43 CALM      30.29S
$$
MIZ043>046-050>051-056>058-064>065-071>073-077>080-232200-
SOUTHWEST LOWER MICHIGAN

CITY           SKY/WX    TMP DP  RH WIND       PRES   REMARKS
BATTLE CREEK   SUNNY     72  50  45 NW5       30.31F
BENTON HARBOR  SUNNY     66  46  48 W6        30.31F
BIG RAPIDS     SUNNY     72  56  57 CALM      30.29S
COLDWATER      SUNNY     73  48  41 CALM      30.31S
FREMONT        FAIR      70  50  48 SW9       30.30S
HOLLAND        SUNNY     69  51  52 SW9       30.32F
GRAND RAPIDS   MOSUNNY   73  54  51 W9        30.31S
IONIA          FAIR      73  53  50 CALM      30.29F
KALAMAZOO      SUNNY     73  50  44 W6        30.31F
LUDINGTON      SUNNY     64  55  70 SW7       30.30F
MARSHALL       SUNNY     71  50  48 NW5       30.30F
MOUNT PLEASANT SUNNY     74  52  45 SW3       30.28F
MUSKEGON       MOSUNNY   66  52  60 SW5       30.31F
SOUTH HAVEN    SUNNY     68  49  50 W6        30.32F
$$
MIZ016>042-232200-
NORTHERN LOWER MICHIGAN

CITY           SKY/WX    TMP DP  RH WIND       PRES   REMARKS
ALPENA         SUNNY     69  55  60 E7        30.27R
BEAVER ISLAND  SUNNY     65  55  67 W10       30.27F
BELLAIRE       SUNNY     73  53  50 CALM      30.27S
CADILLAC       SUNNY     71  56  59 SW6       30.29S
CHARLEVOIX     SUNNY     69  56  64 W8        30.31R
FRANKFORT      SUNNY     68  52  57 W7        30.29S
GAYLORD        SUNNY     70  54  56 VRB6      30.29S
GRAYLING       SUNNY     74  53  46 N5        30.29S
HARBOR SPRINGS SUNNY     70  53  55 W7        30.27S
HOUGHTON LAKE  SUNNY     72  53  51 SW5       30.29S
MANISTEE       SUNNY     68  52  56 W9        30.30S
OSCODA         SUNNY     75  54  48 SW5       30.26S
PELLSTON       SUNNY     71  54  54 W8        30.27F
TRAVERSE CITY  MOSUNNY   73  52  47 W7        30.26F
$$
MIZ007>008-015-232200-
EASTERN UPPER MICHIGAN

CITY           SKY/WX    TMP DP  RH WIND       PRES   REMARKS
KINROSS        CLOUDY    72  57  60 S6        30.25S
MACKINAC ISLAN SUNNY     64  55  71 W9        30.27S
NEWBERRY       SUNNY     71  56  58 SW10G16   30.24S
S. S. MARIE    SUNNY     71  52  50 W7        30.24S
$$
MIZ004>006-011>014-085-232200-
CENTRAL UPPER MICHIGAN

CITY           SKY/WX    TMP DP  RH WIND       PRES   REMARKS
MANISTIQUE     SUNNY     63  56  77 S8        30.26S
ESCANABA       SUNNY     70  52  52 S12G18    30.23F
MENOMINEE      SUNNY     72  55  56 SW10      30.23F
SAWYER-GWINN   SUNNY     75  55  50 NE3       30.23S
$$
MIZ001>003-009>011-084-232200-
WESTERN UPPER MICHIGAN

CITY           SKY/WX    TMP DP  RH WIND       PRES   REMARKS
IRON MOUNTAIN  SUNNY     77  52  41 S7        30.22F
HOUGHTON       SUNNY     72  50  45 NW7       30.21S
COPPER HARBOR    N/A     59  49  69 CALM      30.22S
IRONWOOD       SUNNY     73  48  40 SW9       30.17S
$$

ABBREVIATIONS USED IN REMARKS
   TC - TEMPERATURE IN CELSIUS
  WCI - WIND CHILL INDEX
   HX - HEAT INDEX
  VSB - VISIBILITY




USA.gov is the U.S. government's official web portal to all federal, state and local government web resources and services.